#timestamp,LO_Frequency,Hit,StdDev 
1538809215.1,286046996.8,N
1538809235.8,286046999.1,N
1538809255.7,286046997.2,N
1538809275.5,286046997.4,N
1538809295.4,286046995.4,Y
1538809315.2,286046997.0,P
1538809335.0,286046996.1,P
1538809335.9,286046996.1,P
1538809355.8,286046993.8,Y
1538809375.6,286046997.2,P
1538809395.5,286046997.1,P
1538809415.3,286046999.5,P
1538809435.1,286046997.1,N
1538809455.9,286046997.5,N
1538809475.7,286046996.6,Y
1538809495.6,286046998.2,P
1538809515.4,286047001.1,P
1538809535.3,286047001.2,N
1538809555.1,286046998.6,N
1538809575.8,286046998.1,N
1538809595.7,286047000.7,N
1538809615.5,286047000.8,N
1538809635.4,286047002.5,N
1538809655.2,286047002.1,N
1538809675.0,286047002.1,N
1538809675.9,286047002.1,N
1538809695.8,286047002.7,N
1538809715.6,286047002.3,N
1538809735.4,286046999.8,N
1538809755.3,286047001.4,N
1538809775.1,286047001.6,N
1538809795.9,286047002.4,N
1538809815.7,286047000.5,N
1538809835.5,286046998.4,N
1538809855.4,286046999.5,N
1538809875.2,286046999.0,N
1538809895.0,286046998.7,N
1538809896.0,286046998.7,N
1538809915.8,286046996.5,N
1538809935.6,286046996.7,N
1538809955.5,286046997.3,N
1538809975.3,286046997.5,N
1538809995.1,286046995.1,N
1538810015.9,286046995.0,N
1538810035.7,286046997.9,N
1538810055.5,286046996.5,N
1538810075.4,286046998.0,N
1538810095.2,286046995.0,N
1538810115.1,286046994.9,N
1538810116.0,286046994.9,N
1538810135.8,286046995.5,N
1538810155.6,286046995.6,N
1538810175.5,286046995.4,N
1538810195.3,286046994.9,N
1538810215.1,286046995.5,N
1538810235.9,286046993.7,N
1538810255.7,286046993.6,N
1538810275.6,286046996.4,N
1538810295.4,286046991.7,Y
1538810315.2,286046995.3,P
1538810335.1,286046998.0,N
1538810336.0,286046998.0,N
1538810355.8,286046997.7,N
1538810375.7,286046997.9,N
1538810395.5,286046997.8,N
1538810415.3,286046996.9,Y
1538810435.2,286047000.5,P
1538810455.9,286046996.8,N
1538810475.7,286046997.2,N
1538810495.6,286046995.0,Y
1538810515.4,286046998.5,P
1538810535.3,286047000.9,P
1538810555.1,286046998.7,N
1538810556.0,286046998.7,N
1538810575.1,286046999.5,N
1538810595.9,286046999.6,N
1538810615.7,286046994.9,Y
1538810635.6,286046996.7,P
1538810655.4,286046996.7,N
1538810675.2,286046996.8,N
1538810695.1,286046996.9,Y
1538810696.0,286046996.9,P
1538810715.8,286046998.2,P
1538810735.7,286047001.1,N
1538810755.5,286046998.2,N
1538810775.3,286046999.7,N
1538810795.2,286046999.8,N
1538810815.9,286047002.4,N
1538810835.7,286046998.2,N
1538810855.6,286047000.6,N
1538810875.4,286047000.6,N
1538810895.3,286047001.0,N
1538810915.1,286046999.4,N
1538810916.0,286046999.4,N
1538810935.8,286046998.1,N
1538810955.7,286046998.9,N
1538810975.5,286046998.5,N
1538810995.3,286046998.5,N
1538811015.2,286046997.4,N
1538811035.0,286046997.2,N
1538811035.9,286046997.2,N
1538811055.8,286046996.7,N
1538811075.6,286046997.3,N
1538811095.4,286046996.9,N
1538811115.3,286046996.6,N
1538811135.1,286046998.8,N
1538811155.8,286046998.3,N
1538811175.7,286046998.2,N
1538811195.5,286046998.6,N
1538811215.4,286046998.2,N
1538811235.2,286047001.1,N
1538811255.0,286046998.8,N
1538811255.9,286046998.8,N
1538811275.8,286047000.4,N
1538811295.6,286047000.0,N
1538811315.5,286047000.9,N
1538811335.3,286046999.7,N
1538811355.1,286047002.5,N
1538811375.9,286047001.7,N
1538811395.7,286047002.7,N
1538811415.5,286047002.1,N
1538811435.4,286047002.7,N
1538811455.2,286047002.6,N
1538811475.1,286047004.0,N
1538811476.0,286047004.0,N
1538811495.8,286047001.6,N
1538811515.6,286047000.9,N
1538811535.5,286047002.4,N
1538811555.3,286047000.0,N
1538811575.2,286047002.3,N
1538811595.9,286047002.0,N
1538811615.7,286047003.5,N
1538811635.6,286047001.7,N
1538811655.4,286047003.7,N
1538811675.2,286047002.9,N
1538811695.1,286047005.4,N
1538811696.0,286047005.4,N
1538811715.8,286047005.9,N
1538811735.7,286047003.1,N
1538811755.5,286047004.4,N
1538811775.3,286047003.6,N
1538811795.2,286047003.7,N
1538811815.9,286047003.1,N
1538811835.7,286047003.5,N
1538811855.6,286047003.0,N
1538811875.4,286047005.6,Y
1538811895.3,286046999.9,P
1538811915.1,286046999.7,N
1538811916.0,286046999.7,N
1538811935.8,286047001.9,N
1538811955.7,286047004.0,Y
1538811975.5,286047002.8,P
1538811995.3,286047000.3,N
1538812015.2,286047001.0,N
1538812035.0,286047000.9,N
1538812035.9,286047000.9,N
1538812055.8,286047002.5,Y
1538812075.6,286046998.5,P
1538812095.4,286046998.1,N
1538812115.3,286046999.5,N
1538812135.1,286046999.0,N
1538812155.9,286047000.1,N
1538812175.7,286046998.1,N
1538812195.5,286047000.9,N
1538812215.4,286046998.1,N
1538812235.2,286046999.1,N
1538812255.0,286046998.4,N
1538812255.9,286046998.4,N
1538812275.8,286046997.0,N
1538812295.6,286046997.5,N
1538812315.4,286046998.0,N
1538812335.3,286046996.9,N
1538812355.1,286046997.4,N
1538812375.9,286046995.1,Y
1538812395.7,286046999.6,P
1538812415.5,286046995.5,P
1538812435.4,286046997.3,N
1538812455.2,286046998.0,N
1538812475.0,286046997.7,N
1538812475.9,286046997.7,N
1538812495.8,286046997.3,N
1538812515.6,286046999.5,N
1538812535.5,286046997.4,N
1538812555.3,286046996.5,Y
1538812575.1,286046999.4,P
1538812595.9,286046997.2,P
1538812615.7,286046996.8,P
1538812635.6,286046997.7,N
1538812655.4,286046996.5,Y
1538812675.2,286046999.0,P
1538812695.1,286046996.6,P
1538812696.0,286046996.6,P
1538812715.8,286046996.5,Y
1538812735.6,286047000.2,P
1538812755.5,286047000.0,N
1538812775.3,286046998.7,N
1538812795.2,286047000.1,N
